Wind_Speed
4 4 4 3 3 1 2 2 1 1 0 2 1 1 2 3 2 4 4 2 3 0 1 2 2 1 2 4 6 7 6 3 1 2 2 3 7 11 13 18 21 21 21 21 22 22 22 24 24 24 24 24 25 25 25 25 25 24 23 22 21 21 21 20 20 19 20 21 21 21 21 21 21 21 22 22 23 22 21 21 21 20 20 20 20 20 21 21 22 22 22 22 22 21 21 21 21
4 4 3 3 3 1 1 1 1 1 1 3 2 2 1 1 2 4 4 1 2 3 3 2 4 3 3 6 8 6 7 7 4 4 5 9 13 10 14 19 20 21 20 20 22 22 22 23 24 24 24 24 24 24 24 23 23 22 20 19 19 19 19 19 19 19 20 21 20 20 20 21 21 21 21 22 23 22 21 21 21 20 20 20 19 19 19 19 19 19 19 21 20 19 19 20 20
5 4 3 2 3 2 2 0 1 1 3 4 2 3 0 2 4 3 3 4 2 1 2 1 2 3 2 5 4 3 6 6 6 6 7 13 13 9 15 19 19 20 19 20 21 22 21 21 24 24 24 24 24 24 22 22 22 20 20 19 18 19 19 19 19 20 21 20 19 18 19 20 21 21 20 21 23 22 21 20 20 20 20 19 19 19 18 18 17 16 17 19 19 18 17 17 18
4 4 2 0 1 1 2 0 1 2 3 3 1 3 3 2 1 1 3 4 4 3 2 3 2 4 5 6 4 2 6 4 5 6 7 10 10 12 17 19 19 19 19 19 20 22 21 22 24 24 24 24 24 24 22 22 21 21 20 19 19 19 19 20 21 21 20 19 19 19 19 21 21 21 20 21 23 22 20 20 19 19 19 18 18 19 18 17 16 16 16 17 17 17 17 16 16
4 3 3 1 1 0 1 1 1 2 4 2 1 1 3 3 2 1 5 6 4 3 1 2 3 3 4 7 4 2 5 3 5 6 8 9 11 15 17 19 19 18 19 18 18 20 20 22 24 23 23 23 24 23 22 22 20 21 20 19 19 19 19 20 21 20 19 19 19 18 19 19 20 20 19 21 22 22 21 20 19 19 19 18 18 19 17 16 16 16 16 16 17 18 17 16 16
4 3 4 2 1 0 1 1 2 4 3 2 2 1 2 2 0 2 6 6 1 1 2 1 2 3 5 6 5 5 5 1 3 4 8 11 15 16 17 19 18 17 18 18 17 18 20 23 23 22 23 23 24 23 22 21 20 20 20 20 19 19 19 19 20 19 19 19 19 18 17 18 18 17 18 19 20 20 21 21 19 19 18 18 17 17 16 16 16 16 16 16 17 18 18 17 16
3 2 2 2 2 1 2 2 2 3 2 4 4 3 2 1 2 3 6 3 2 2 2 2 3 6 5 2 4 7 7 3 2 5 10 14 18 17 17 18 18 17 17 18 18 18 21 23 23 23 23 23 23 22 21 20 19 18 19 20 19 18 18 19 19 19 19 19 19 18 17 18 17 17 18 18 17 18 19 20 19 19 18 17 16 16 16 17 16 16 16 16 17 17 17 17 17
2 1 1 1 1 1 1 1 2 2 2 4 5 6 4 2 3 4 4 0 1 1 4 4 3 4 4 1 3 7 9 7 6 11 13 16 18 17 17 17 19 18 17 19 19 20 21 22 23 22 23 22 21 21 20 19 18 18 19 19 19 19 18 19 19 19 18 18 19 18 17 17 16 16 18 17 16 16 18 19 18 18 17 16 16 16 17 17 15 15 15 16 16 16 16 17 16
3 1 1 1 1 0 0 2 2 3 3 4 6 8 7 6 5 4 4 1 1 3 4 3 1 3 5 5 5 5 8 9 11 14 14 16 17 16 16 17 18 18 18 18 19 21 21 22 23 22 22 21 21 20 19 19 18 18 19 18 19 19 18 18 19 19 18 19 19 18 17 16 16 16 17 16 15 14 16 18 18 18 17 16 17 17 18 16 14 14 15 15 16 16 16 16 16
2 2 1 1 1 1 1 1 2 2 4 5 6 10 9 7 5 4 5 1 2 4 4 1 3 7 7 7 6 3 5 8 12 14 14 15 16 15 15 16 17 18 18 19 20 20 20 22 22 21 21 20 20 19 19 18 18 19 19 18 18 19 20 19 19 18 18 20 19 18 18 16 16 16 16 15 14 14 14 16 17 17 17 17 17 17 17 15 14 13 14 15 15 16 15 16 15
1 1 0 1 1 2 2 3 3 3 4 5 6 8 7 6 5 4 3 2 2 4 4 1 5 11 9 6 3 3 4 7 10 13 13 14 14 14 15 15 17 18 18 19 20 20 20 21 20 20 20 19 19 18 18 18 18 19 19 19 17 19 21 20 19 19 18 20 20 19 18 17 17 17 16 14 13 13 14 14 15 15 15 15 17 17 16 15 14 13 13 15 16 16 15 15 15
1 1 1 2 1 1 1 3 4 5 6 4 3 3 2 2 4 4 3 5 4 5 3 1 5 8 7 6 2 3 6 6 9 12 13 13 13 13 14 15 16 17 18 19 20 20 20 20 19 19 19 18 17 17 17 19 19 19 20 20 18 19 20 20 20 19 19 20 20 19 18 17 17 15 15 14 12 12 13 13 14 15 14 15 16 16 15 15 14 13 14 15 17 16 15 15 14
1 2 2 2 0 1 0 2 3 5 4 3 2 3 2 2 2 2 5 6 4 5 3 2 6 6 6 5 2 4 5 6 9 11 13 13 12 12 14 16 16 17 19 19 19 20 20 20 19 18 18 18 17 17 17 19 20 19 20 20 19 18 19 20 20 19 19 19 20 19 18 16 15 14 13 12 12 12 12 12 13 14 15 16 16 15 15 14 14 14 14 16 17 16 16 15 14
1 1 1 1 0 0 1 2 2 3 2 2 2 5 3 1 2 1 7 8 4 3 3 3 4 5 6 5 3 4 5 8 10 12 13 13 13 13 14 15 16 17 19 19 19 20 20 20 19 18 17 17 16 16 16 18 18 18 19 19 19 18 18 19 19 19 18 18 19 19 18 17 15 14 12 11 11 11 11 12 12 14 17 17 16 15 14 14 14 14 15 17 17 16 16 15 14
1 1 0 1 1 1 2 2 1 1 1 2 4 6 3 2 1 2 4 5 4 2 2 3 1 2 5 5 5 7 10 13 13 13 14 14 14 14 14 14 16 17 17 19 19 20 20 19 19 19 17 16 16 15 15 15 16 17 17 18 18 18 18 18 19 18 17 18 19 18 17 16 15 14 12 10 11 12 11 11 11 14 18 18 17 16 14 15 15 15 16 17 17 16 15 14 14
1 1 1 1 1 1 2 2 1 1 1 1 3 5 2 3 1 2 3 2 6 2 1 3 5 3 3 3 9 15 16 16 14 14 15 15 14 13 13 13 15 17 17 19 19 19 19 18 18 19 18 18 17 16 15 14 14 15 16 17 17 17 17 17 17 16 16 18 18 16 15 15 14 14 12 11 12 12 12 11 11 15 19 19 17 16 15 15 15 16 16 17 17 16 15 14 13
1 1 1 1 2 2 3 3 2 0 2 3 4 7 3 3 3 3 3 4 8 5 5 7 7 5 4 7 17 21 19 17 16 16 16 16 15 14 14 14 15 16 18 18 19 20 19 18 18 19 18 18 18 16 16 16 15 14 15 16 16 16 16 16 16 15 16 17 17 16 16 15 14 14 13 12 12 12 12 11 12 16 19 19 18 17 16 15 16 16 16 17 17 16 15 14 13
2 2 2 3 3 2 4 4 2 0 3 6 7 6 3 2 5 3 4 7 8 8 9 9 11 9 10 15 22 22 20 19 18 18 17 16 15 15 14 15 15 16 18 17 17 19 19 18 18 17 17 17 18 17 16 16 16 15 15 15 15 15 16 16 16 16 17 18 17 16 16 16 15 15 14 13 12 12 12 12 12 16 19 19 17 17 16 16 16 17 17 17 16 15 15 14 13
2 2 2 4 3 2 2 2 1 1 4 8 8 4 2 1 5 2 2 5 6 8 9 9 13 12 13 18 21 21 20 20 19 18 17 16 15 16 15 15 15 15 17 17 17 18 17 18 18 17 17 17 18 17 16 16 17 16 16 16 16 16 16 16 16 17 18 19 17 16 16 16 15 15 14 14 13 12 12 12 12 16 19 18 17 17 16 16 17 17 17 16 15 14 14 15 13
2 2 4 4 2 3 3 3 4 3 4 7 7 4 3 1 2 1 3 6 4 5 7 8 10 12 14 16 19 20 20 18 18 16 15 16 15 16 16 17 17 17 17 17 16 17 17 17 18 17 17 18 17 17 16 16 17 17 17 17 16 17 17 17 17 17 18 17 17 16 16 16 15 14 15 15 13 12 12 12 12 15 18 18 18 17 17 17 17 17 16 15 14 13 14 15 14
2 3 4 2 2 3 3 5 5 3 3 3 5 5 4 3 2 2 6 6 1 2 6 8 12 16 16 16 18 19 18 17 16 14 14 15 15 15 16 16 17 18 17 16 15 16 17 18 18 18 18 18 17 17 16 17 18 16 17 18 18 18 18 18 18 18 17 16 16 16 16 15 14 14 15 15 13 12 12 12 11 13 14 15 17 17 18 18 17 17 16 14 13 13 13 14 15
3 3 4 2 2 4 3 2 3 1 1 2 4 5 3 3 2 3 4 3 3 1 5 12 16 18 18 18 18 18 16 16 16 15 14 15 15 15 15 15 15 16 17 17 16 16 16 18 19 18 18 19 18 16 16 18 18 16 16 18 18 17 17 18 18 17 16 17 17 16 16 15 14 13 13 13 13 12 12 12 10 11 12 13 17 18 18 18 17 17 16 15 13 13 14 14 14
4 3 2 4 4 5 4 0 3 2 1 3 3 3 2 3 2 1 2 1 3 2 5 14 16 17 19 19 18 17 16 15 16 16 16 16 16 16 17 16 15 16 17 16 17 17 17 18 19 19 19 20 20 18 17 18 18 15 15 15 15 16 17 16 16 16 16 17 17 16 16 16 15 13 12 12 13 13 12 11 10 10 10 12 17 18 18 17 16 16 16 16 15 14 14 14 13
4 4 3 4 4 6 5 4 4 1 3 5 2 1 1 2 2 1 2 2 3 1 8 15 16 18 18 17 16 16 16 16 17 17 16 16 17 17 17 17 16 16 16 16 16 17 18 18 20 20 20 21 20 20 18 18 17 15 15 15 16 17 17 16 14 15 17 17 16 15 16 15 14 13 12 12 11 12 12 11 9 9 9 11 16 18 18 18 16 16 17 17 16 16 15 14 13
5 6 3 3 3 5 5 6 5 2 4 5 3 2 3 3 0 1 1 5 5 8 13 15 16 17 15 16 16 15 15 15 16 16 15 14 15 15 14 14 15 16 16 16 16 17 19 19 20 21 21 20 19 20 19 18 17 17 16 16 16 17 17 17 15 15 16 16 15 15 15 14 13 12 12 12 10 10 11 11 10 9 10 11 15 18 18 18 17 16 17 18 17 16 15 14 13
6 8 3 4 4 4 4 5 3 1 2 3 4 2 3 2 2 1 4 5 7 12 14 15 16 16 14 14 15 15 14 15 16 16 14 12 13 15 13 13 14 17 17 16 17 18 18 18 19 20 21 19 18 19 18 17 17 17 17 16 16 15 16 17 16 15 15 15 14 14 15 14 13 12 12 12 11 10 11 12 10 12 14 12 13 17 19 18 18 17 17 18 18 16 15 14 13
4 7 5 7 5 3 3 4 3 2 3 4 4 1 4 2 2 1 2 4 9 13 14 14 15 15 14 13 13 14 13 15 16 15 14 12 13 15 15 14 14 16 16 16 17 17 16 16 17 19 20 18 19 20 17 15 17 17 16 16 16 14 14 17 16 15 14 14 14 15 14 15 13 11 11 12 10 10 12 12 10 13 16 14 12 14 18 18 17 17 16 17 18 17 15 14 13
3 5 4 5 4 4 4 4 4 3 2 3 3 1 3 1 2 2 4 7 9 13 15 13 13 13 13 13 12 11 12 14 16 15 16 15 13 15 16 16 16 16 16 17 17 16 16 16 16 17 18 18 19 19 16 15 15 15 15 15 15 14 14 16 16 15 15 13 14 16 15 15 13 10 10 11 10 10 11 10 10 12 14 12 10 11 16 18 17 16 16 16 16 16 15 14 13
3 3 3 2 1 3 3 2 2 1 0 2 4 2 1 1 2 4 2 6 10 12 14 13 12 11 11 12 11 10 11 13 15 15 16 14 12 14 16 17 18 17 15 15 15 15 16 15 15 16 17 17 17 17 16 15 14 14 15 14 14 14 14 15 15 15 16 14 14 16 16 15 13 11 12 12 10 10 10 9 10 12 12 11 10 10 13 15 15 16 16 15 16 16 15 14 14
3 3 2 1 0 1 0 2 0 2 0 1 3 2 2 3 7 9 5 4 10 11 12 13 11 11 11 11 10 10 12 13 15 16 14 12 11 14 16 17 19 18 13 13 15 16 15 14 14 15 16 16 15 15 15 14 13 12 13 13 13 13 13 15 15 15 15 14 15 16 16 16 14 13 14 12 10 11 10 9 11 14 13 12 12 11 11 13 13 14 16 15 15 15 14 15 14
2 3 1 1 2 2 2 2 1 2 1 2 3 1 3 7 11 11 6 3 7 8 11 12 11 11 10 10 10 10 12 13 15 15 13 11 9 12 16 19 19 17 13 12 14 14 13 13 13 13 15 16 15 14 15 14 12 10 11 12 14 13 13 15 15 14 14 15 16 16 15 16 15 13 12 12 12 11 11 11 12 13 15 15 15 13 11 12 12 12 14 14 12 11 11 11 11
1 3 3 1 2 1 3 2 0 1 2 3 2 1 4 6 12 13 8 0 4 3 7 9 10 11 10 9 10 9 10 12 13 13 12 11 8 9 14 17 18 18 14 11 11 11 11 12 11 10 12 15 16 15 16 15 12 10 10 12 14 14 14 15 14 13 13 14 14 15 15 15 14 12 12 13 13 12 12 11 11 12 16 18 17 16 14 13 13 12 13 13 12 10 10 9 8
1 2 3 2 3 1 2 2 2 1 2 2 2 1 3 5 11 13 11 4 2 2 3 7 8 9 9 7 7 8 8 9 11 12 12 10 9 10 13 15 16 17 14 9 8 8 9 9 9 8 8 13 15 15 15 15 13 12 12 12 13 13 14 14 13 12 13 13 14 16 17 15 13 13 13 14 14 14 13 12 12 13 18 20 19 19 17 15 14 12 12 13 12 11 11 9 8
2 0 1 1 2 2 1 1 2 2 1 2 4 4 4 6 9 12 14 9 2 1 1 4 6 6 7 7 7 7 8 8 8 10 11 10 10 11 12 13 13 9 6 5 5 4 3 5 7 6 6 9 12 11 11 13 14 14 14 13 13 13 13 14 14 14 14 14 14 17 17 15 14 14 15 15 15 15 14 14 14 13 16 19 20 20 19 17 15 12 12 12 11 11 11 9 9
5 4 3 2 1 1 1 2 1 3 2 3 6 7 7 8 10 11 12 11 7 6 4 0 4 6 6 6 7 7 8 9 6 5 8 8 8 8 7 9 8 10 16 19 18 16 14 12 9 6 4 4 7 7 7 11 14 15 15 15 15 15 13 12 13 14 15 16 16 15 15 14 16 17 18 18 16 16 15 16 16 14 15 17 19 20 19 18 17 15 14 11 9 9 9 8 9
6 5 4 4 4 2 1 1 1 3 6 7 6 7 8 10 11 11 10 10 11 10 8 6 2 2 4 5 6 6 7 7 2 5 6 6 5 5 6 8 11 16 20 19 14 9 8 11 13 8 5 2 3 6 8 11 13 14 14 14 15 14 12 10 12 15 15 17 17 15 14 15 18 20 20 20 19 18 16 16 16 16 15 15 17 19 20 20 20 18 14 10 9 9 8 8 9
6 5 3 4 4 3 1 1 1 3 6 6 7 11 11 11 11 10 8 10 14 13 11 10 8 5 2 1 3 4 5 3 6 8 7 6 5 5 5 8 12 11 6 4 5 3 3 1 3 4 5 5 5 7 9 11 13 15 14 14 15 14 13 13 14 16 17 19 19 17 16 18 21 22 22 22 21 20 20 21 20 19 18 17 17 19 21 20 18 16 12 10 12 12 9 9 10
6 5 4 2 3 3 1 0 2 2 4 3 5 12 12 10 11 10 10 13 15 13 11 11 11 10 8 8 7 6 4 5 8 8 7 7 6 6 7 9 10 3 5 5 3 1 2 7 9 11 13 11 9 9 11 12 14 16 16 17 16 13 14 17 17 17 19 20 20 21 21 21 23 24 23 23 23 22 23 25 25 22 20 19 17 17 19 18 15 15 13 12 13 13 10 11 13
4 3 3 3 2 1 1 1 3 2 3 5 6 12 10 9 10 11 13 14 12 12 13 13 13 13 12 12 11 10 9 8 8 9 9 9 8 8 8 8 6 4 4 2 3 1 2 7 11 12 11 9 8 8 9 11 13 14 15 16 17 13 13 18 19 17 19 20 20 23 24 21 22 26 24 22 22 22 23 25 26 25 22 19 16 15 17 17 15 15 15 14 13 13 11 13 15
2 3 3 3 1 1 3 3 2 4 3 7 10 11 7 7 9 11 13 12 11 13 15 15 14 14 14 13 12 12 12 11 10 10 9 9 10 10 10 8 5 4 4 2 3 2 5 9 11 9 9 10 9 9 9 10 11 11 10 10 14 15 17 18 18 19 23 23 21 23 26 24 24 27 24 19 21 22 22 23 24 25 25 22 18 16 15 16 16 15 16 16 15 15 14 14 15
2 3 4 3 2 2 2 3 2 4 4 5 8 8 5 7 8 9 10 10 11 13 15 16 14 13 13 13 14 13 13 12 12 11 10 10 10 10 12 12 9 6 5 3 1 4 8 12 13 12 11 10 9 9 9 9 9 10 8 7 9 13 15 15 14 18 23 23 22 22 24 23 22 23 21 21 24 25 25 25 23 23 24 24 20 18 17 16 15 15 17 18 17 17 16 15 16
2 4 5 5 4 3 2 2 3 4 3 3 1 2 2 5 7 8 7 9 11 12 15 15 14 13 13 13 13 13 13 13 13 13 14 15 14 14 14 14 13 11 9 7 5 7 8 9 12 12 11 9 8 7 8 8 8 9 9 10 12 10 10 13 16 17 20 21 21 21 22 21 19 18 17 19 22 24 24 25 25 24 22 23 21 19 20 20 16 15 17 18 18 18 17 16 17
3 4 5 5 4 3 3 2 2 2 3 2 1 1 2 3 5 7 7 9 11 12 15 14 12 12 12 11 12 12 13 12 12 14 15 17 18 18 18 17 16 15 14 11 9 9 9 7 8 9 9 8 9 9 9 7 6 7 8 11 13 12 12 17 20 20 21 20 18 19 19 19 17 16 16 17 21 24 23 22 24 25 23 23 22 20 22 22 17 15 17 18 18 18 17 16 18
3 3 7 7 6 6 5 3 3 1 1 2 1 1 3 3 2 5 4 7 11 12 14 13 11 12 12 12 13 12 13 12 12 12 14 17 18 18 18 18 18 17 16 15 14 14 13 12 11 11 10 10 10 10 10 9 7 6 8 10 12 14 15 16 16 18 20 18 17 18 19 19 18 18 19 19 21 24 23 22 22 23 24 23 22 22 23 23 20 16 17 18 18 18 18 17 18
2 4 7 7 5 6 5 3 3 1 1 3 2 1 2 3 1 2 1 5 10 11 12 12 12 12 12 12 13 13 12 12 12 12 13 16 19 19 18 18 21 23 20 17 16 16 15 14 13 12 12 12 13 12 9 10 10 8 9 12 14 15 17 16 14 16 17 16 17 19 20 21 20 19 18 17 19 22 21 21 21 23 25 23 21 21 22 24 23 19 19 20 18 17 18 17 17
3 7 6 4 3 3 3 3 2 1 3 4 3 2 1 3 0 0 2 4 7 8 9 10 11 11 12 12 13 13 11 11 12 12 14 16 17 18 17 18 23 26 24 19 18 18 17 16 16 15 12 11 12 13 10 7 9 11 12 14 14 15 16 17 16 16 15 16 19 20 21 21 20 18 18 17 19 20 19 20 23 25 26 25 22 21 22 24 23 20 21 24 22 17 16 17 17
8 9 7 5 4 2 2 1 0 2 4 1 1 4 1 3 1 1 2 3 5 6 7 9 10 11 11 11 12 12 12 11 11 12 16 18 17 18 19 20 23 26 27 24 22 22 20 18 19 18 14 12 11 11 10 7 9 13 14 13 13 14 15 16 15 16 16 16 18 20 20 18 16 16 17 17 19 20 19 21 24 26 24 24 23 22 25 26 24 21 21 23 24 21 18 18 16
6 6 5 5 3 1 2 2 1 5 4 1 1 4 1 2 2 3 4 6 8 7 7 9 10 11 10 10 11 12 11 12 12 11 14 17 18 19 21 22 23 25 28 26 24 23 21 21 21 20 18 15 12 10 8 9 11 13 13 13 15 15 16 15 15 15 16 15 16 18 19 16 14 13 14 16 19 21 22 23 25 26 24 24 23 25 28 27 24 23 21 23 26 25 22 19 17
3 4 8 7 4 4 4 3 3 4 2 1 1 3 2 4 4 6 8 9 9 8 8 9 9 9 10 11 12 11 11 12 12 12 12 14 15 18 20 21 21 22 24 23 22 22 21 22 22 21 20 18 16 13 11 11 14 15 13 14 15 17 17 17 16 15 15 16 17 19 19 17 16 15 14 16 18 20 23 25 26 27 27 26 25 26 28 27 26 24 23 24 26 26 24 22 21
5 6 8 7 5 6 5 3 2 2 1 2 3 3 3 6 5 8 10 9 10 11 10 9 10 10 10 11 11 11 11 11 11 11 11 12 15 18 18 19 19 20 21 21 21 22 22 22 23 21 21 20 19 17 14 12 13 14 12 12 13 15 17 17 16 15 14 16 18 20 20 19 19 17 16 18 19 19 23 26 27 28 29 28 27 27 27 26 26 26 24 25 27 28 27 26 24
5 3 3 4 3 4 4 3 3 3 2 2 3 1 4 4 4 8 11 10 10 11 10 10 10 10 10 11 11 11 11 10 9 9 10 12 14 16 16 16 17 18 20 21 21 23 23 23 23 21 21 22 21 20 16 15 14 14 13 14 14 14 14 15 16 16 15 16 18 19 20 21 22 20 18 20 22 20 22 26 27 28 29 28 27 27 27 26 26 26 24 25 27 27 27 28 25
3 1 2 3 3 3 3 1 1 2 3 2 2 2 2 3 5 8 10 11 10 10 9 10 10 10 10 11 11 11 10 9 9 8 10 12 14 15 15 15 16 18 19 20 21 22 23 25 25 23 23 22 22 21 19 18 17 16 15 15 15 14 12 13 14 16 16 16 17 18 20 22 21 21 21 23 24 23 23 25 26 28 29 28 26 26 26 26 26 25 22 22 26 27 28 29 26
4 3 4 2 1 4 4 2 2 1 3 2 1 2 4 3 5 8 10 10 9 8 9 10 10 11 11 11 10 10 9 9 9 9 10 13 14 15 15 15 17 19 18 19 20 20 21 22 23 24 24 23 22 21 19 19 18 16 15 14 13 13 12 12 12 14 15 15 16 17 20 21 20 20 23 24 23 23 24 24 25 28 29 27 25 25 24 24 24 23 21 21 25 27 27 28 26
5 6 6 3 2 3 2 3 2 1 3 2 0 3 6 5 4 7 9 9 8 7 9 10 10 11 11 11 10 10 10 9 10 11 12 14 15 16 17 17 17 18 17 18 19 18 18 19 19 20 21 21 21 20 18 19 19 16 14 14 14 13 13 13 14 13 12 13 14 17 19 20 19 18 21 25 22 20 21 21 22 24 25 25 24 24 24 23 23 22 22 23 23 24 23 23 23
2 5 6 3 2 3 2 2 3 3 3 2 2 4 5 5 3 6 9 8 7 7 9 10 11 11 10 10 11 11 11 10 10 10 11 13 15 17 17 17 18 18 17 18 18 18 19 19 19 19 18 19 20 21 20 19 19 18 15 14 14 14 13 13 13 13 12 12 12 15 18 19 18 15 17 22 21 18 20 21 21 21 21 22 22 22 22 23 24 23 22 23 22 23 23 21 21
3 5 4 1 0 2 2 1 2 4 4 3 4 3 5 4 1 4 9 9 7 7 9 9 10 10 10 10 10 11 10 10 10 9 10 13 15 17 17 16 17 17 17 17 18 19 20 19 19 20 19 20 21 21 20 19 18 18 18 15 14 14 14 13 12 12 13 13 13 15 17 18 18 15 15 18 19 19 20 21 23 22 20 20 22 22 21 22 25 24 22 21 19 20 21 21 21
4 6 5 2 2 1 2 2 2 2 4 4 4 3 4 2 2 3 9 11 8 9 9 8 8 9 10 10 10 9 9 9 9 9 10 13 15 17 17 17 17 18 18 19 19 19 19 20 20 20 20 21 21 20 19 18 16 17 19 18 16 16 15 13 13 13 13 13 13 14 16 16 16 15 15 16 18 19 20 22 24 23 18 19 22 23 22 25 27 24 21 20 19 22 22 21 21
2 4 4 4 4 4 4 3 1 2 2 4 4 3 3 2 3 3 10 10 9 10 10 9 8 9 10 10 9 9 8 8 9 9 11 13 15 16 17 17 18 19 20 21 20 20 21 21 21 20 21 21 21 20 20 19 17 16 17 17 17 16 15 14 13 13 14 14 13 12 13 13 14 16 17 17 16 16 18 20 22 21 19 19 21 21 21 26 27 22 19 19 22 27 25 20 21
Wind_Direction
132 116 98 77 32 51 44 10 206 83 213 238 229 220 217 215 342 280 257 260 268 334 239 336 24 340 91 91 117 106 46 45 35 7 53 84 137 136 142 143 140 141 140 143 146 146 148 152 154 155 155 155 154 154 153 151 148 147 146 144 141 140 137 134 133 133 132 132 130 129 128 127 126 124 123 123 123 123 122 119 119 117 112 109 108 106 105 103 103 102 101 101 98 95 96 96 96
126 111 91 90 45 55 148 354 237 103 208 240 217 193 33 155 224 245 244 302 333 35 47 54 92 61 55 97 111 111 58 47 49 60 78 121 130 124 142 145 142 141 139 144 146 145 147 151 154 155 156 156 155 153 151 148 147 145 145 140 137 136 133 133 134 132 131 130 128 129 129 129 128 126 125 125 126 125 124 122 122 120 117 114 111 108 105 103 101 101 103 105 101 95 97 100 99
121 107 84 103 50 30 128 9 234 149 204 236 232 187 171 191 212 249 262 277 314 11 9 338 112 22 329 113 71 23 62 62 77 83 106 132 133 130 145 145 142 140 139 145 149 147 147 152 155 155 157 157 155 151 145 144 145 143 140 135 134 134 133 133 134 132 128 128 130 131 131 130 128 126 126 127 127 126 127 126 126 123 121 118 115 112 107 104 100 100 105 107 102 98 100 101 102
121 101 52 359 93 60 140 152 202 178 208 232 276 191 205 200 186 296 295 295 290 273 320 340 88 1 354 69 22 22 69 56 77 92 122 136 139 138 145 144 141 139 140 146 150 148 148 154 155 155 157 155 154 150 144 144 146 143 137 135 136 135 135 134 133 131 127 130 132 132 129 128 128 128 128 129 128 128 130 129 128 126 123 123 120 117 112 107 103 104 108 104 100 100 103 104 104
120 94 37 356 186 133 135 139 111 204 217 180 324 223 201 197 85 351 309 314 286 242 263 351 64 20 33 49 3 41 42 43 88 95 117 126 137 139 143 142 141 141 143 147 149 148 149 153 153 155 155 154 153 150 148 147 145 143 138 137 138 136 136 134 131 129 130 133 133 130 127 125 127 126 127 131 132 132 133 130 130 128 127 128 124 121 116 111 111 111 109 102 99 101 101 103 103
128 102 42 53 117 32 159 194 176 220 231 164 267 325 135 198 7 317 310 326 3 173 212 284 80 102 82 53 42 46 4 360 99 95 115 131 140 139 141 141 141 143 145 148 147 146 150 154 154 155 154 155 153 150 150 148 142 142 141 138 137 137 136 133 132 132 134 135 133 131 128 127 126 123 124 128 130 132 134 132 132 132 131 130 126 121 117 117 118 113 106 100 100 102 100 98 99
146 147 36 79 104 340 211 225 220 236 223 175 248 311 72 134 237 299 322 347 88 104 136 105 119 117 92 78 75 44 10 8 74 111 122 136 140 140 141 142 143 144 147 150 148 148 155 157 154 154 155 155 152 151 150 146 141 144 146 140 138 138 137 135 134 136 137 136 135 133 130 128 127 126 127 127 128 131 132 133 135 138 135 131 127 122 122 122 118 110 102 97 100 102 99 96 97
115 128 330 180 135 4 210 244 249 238 219 204 260 280 278 267 248 294 316 324 93 117 132 122 127 114 83 81 98 51 33 46 94 117 127 138 140 141 142 145 145 148 151 152 150 151 158 157 155 155 154 152 150 150 149 145 143 147 147 142 141 140 138 138 138 140 140 138 138 134 131 130 130 132 131 130 131 131 136 137 139 141 137 133 131 128 128 124 116 106 99 95 97 100 98 94 96
59 28 209 213 169 37 211 264 263 236 253 255 267 264 267 267 248 255 263 257 186 173 138 135 171 137 112 87 96 69 47 74 107 119 130 139 142 142 145 150 148 150 152 152 153 154 158 156 155 154 152 151 150 150 149 148 148 148 146 144 144 142 139 140 142 144 142 141 140 136 135 133 134 137 133 130 128 129 137 141 141 141 139 138 135 133 130 123 115 105 97 95 97 99 98 95 97
35 16 169 141 167 224 241 250 262 245 255 266 276 269 267 258 228 223 255 281 156 160 128 44 77 113 116 91 87 63 54 94 114 120 133 140 143 143 146 153 151 152 152 152 155 155 157 156 154 153 151 151 152 153 153 152 151 150 147 145 145 144 143 143 146 146 146 144 141 140 139 136 135 137 132 127 127 127 132 140 142 141 141 140 137 135 131 125 115 103 97 98 101 103 101 98 98
146 50 142 173 186 224 243 245 257 278 278 288 287 270 269 257 213 209 232 124 116 133 138 287 93 107 104 92 79 56 82 114 122 126 136 142 143 145 146 150 153 152 152 153 155 154 157 157 155 153 153 152 153 155 157 155 153 151 148 145 144 146 146 146 148 148 149 147 145 145 142 138 135 135 132 128 131 131 127 133 140 143 143 142 141 139 134 126 113 104 104 106 108 108 106 102 99
180 110 163 187 209 220 255 265 278 297 293 311 320 307 321 213 192 188 165 127 124 120 121 288 128 119 99 97 93 96 106 115 128 134 137 140 141 144 147 149 151 151 152 154 155 156 158 159 158 156 155 154 154 155 157 155 152 151 149 146 145 149 150 150 150 150 153 152 150 147 142 139 136 137 137 135 137 134 128 129 136 143 144 144 146 144 136 125 113 109 113 115 115 114 108 102 98
180 132 158 173 227 201 227 270 289 302 308 360 335 330 7 183 215 174 124 106 105 110 87 70 128 113 92 106 110 121 117 116 133 138 137 140 141 143 147 148 149 151 154 156 157 159 160 161 160 160 159 155 154 154 155 154 152 152 151 148 148 152 156 154 153 154 156 156 154 148 142 140 139 141 141 140 142 136 131 130 135 144 148 149 149 144 136 124 114 114 120 122 121 117 109 101 97
169 153 185 168 78 171 221 267 282 292 332 22 327 322 336 334 326 97 114 102 71 53 77 91 131 115 110 129 139 144 141 141 144 142 142 142 141 143 145 148 151 153 156 158 159 160 162 162 160 162 161 155 154 154 155 155 153 153 153 152 152 155 160 160 157 156 157 157 153 146 143 142 142 143 143 144 147 142 135 133 136 146 150 151 149 143 134 124 118 120 124 126 125 119 109 101 96
161 146 125 156 131 207 218 238 296 330 26 16 356 333 338 36 319 108 87 100 84 26 117 101 16 119 138 158 168 168 160 154 152 147 146 142 140 141 141 148 153 154 158 159 160 162 164 162 160 162 162 158 157 157 157 157 155 153 154 155 157 158 161 163 161 159 158 153 148 145 144 144 145 143 144 149 150 146 138 135 137 145 150 151 149 143 134 126 123 126 128 129 126 119 110 103 99
134 136 89 175 193 204 200 195 209 5 349 321 356 335 5 66 351 60 25 104 115 83 61 51 5 48 125 144 149 157 157 154 153 150 145 139 137 138 142 150 154 156 159 160 160 164 166 164 162 165 165 164 162 160 157 157 158 156 156 160 161 159 160 164 163 160 155 150 148 148 148 148 149 144 143 149 149 147 141 136 137 145 150 149 148 143 135 130 128 129 131 130 125 118 110 104 100
129 172 153 187 207 210 196 195 192 96 335 303 347 349 3 64 34 60 62 85 108 92 51 48 32 53 95 116 138 147 151 152 154 152 146 143 142 143 149 155 157 160 162 162 164 166 169 168 167 168 168 167 165 161 158 158 160 158 158 161 161 159 160 163 161 156 151 153 155 155 154 156 157 150 145 148 148 149 143 136 140 145 149 149 148 143 137 133 132 132 133 132 126 119 110 104 101
174 174 184 210 202 202 199 198 190 133 334 322 336 348 342 81 92 121 105 81 93 84 60 61 62 71 100 121 136 143 150 156 159 158 152 150 150 151 155 158 160 163 163 163 166 169 172 173 172 170 168 168 167 163 162 161 161 161 160 160 161 160 160 161 159 156 156 161 165 164 164 165 164 157 150 150 148 148 144 139 143 148 149 150 149 143 138 135 134 135 135 135 129 122 114 109 106
182 126 201 220 195 206 209 197 205 253 314 323 328 341 340 61 120 174 161 122 132 102 79 80 86 96 116 130 141 146 155 162 165 164 156 151 151 156 159 162 163 163 167 166 168 173 176 177 176 172 168 169 169 168 167 165 165 165 163 162 164 163 161 162 162 162 164 169 171 172 173 172 170 162 155 154 151 149 147 143 144 150 151 151 150 145 140 137 135 136 138 138 133 126 120 115 114
184 164 220 226 202 245 232 215 234 241 293 319 325 330 335 351 116 252 162 143 174 144 123 117 117 128 134 141 149 154 162 167 168 165 155 151 151 160 166 168 168 167 170 169 169 175 179 179 178 176 174 172 172 172 171 169 170 169 166 166 168 168 166 167 169 170 172 173 173 174 176 175 173 166 159 158 156 154 150 146 145 149 151 151 150 145 140 138 136 136 139 141 139 136 128 121 119
169 193 229 207 120 263 233 211 241 245 256 296 316 323 352 357 338 225 163 134 189 194 146 146 150 148 146 153 159 163 167 168 170 167 160 156 157 168 173 172 171 169 170 171 171 176 181 182 180 180 181 178 177 176 174 174 173 171 170 171 172 174 173 173 175 176 177 176 175 175 175 174 172 168 165 162 161 161 157 152 151 152 152 153 154 148 143 141 137 138 140 144 148 147 137 128 124
168 206 256 233 165 268 266 185 224 220 207 279 317 325 2 331 296 194 178 118 87 53 127 149 154 155 156 160 164 167 169 171 172 173 166 159 164 174 176 173 171 171 171 173 174 177 181 183 183 183 183 183 183 181 178 179 178 176 176 175 174 178 179 178 179 179 179 179 179 179 176 173 172 171 172 170 166 167 164 161 160 161 159 158 159 155 149 146 143 141 143 147 152 150 143 134 128
206 206 264 246 218 254 284 250 213 180 287 295 309 324 351 323 331 186 259 41 62 20 140 149 151 157 160 160 165 170 174 175 175 180 174 165 172 177 176 175 174 175 176 178 178 179 180 184 187 186 185 186 188 188 185 184 183 181 179 176 176 180 182 183 183 182 184 185 183 182 179 176 175 175 180 180 173 171 171 169 166 165 163 160 162 162 155 151 148 145 146 148 150 151 146 139 133
226 216 236 241 219 241 265 281 256 216 265 265 266 348 325 308 360 215 247 35 45 106 146 144 146 155 158 160 168 173 177 178 180 186 181 176 180 176 173 176 178 180 181 183 182 183 184 186 190 189 189 189 191 192 189 189 188 185 182 179 180 183 184 186 187 190 193 191 188 188 185 180 179 180 183 186 182 179 179 176 171 167 165 165 166 166 161 156 153 149 147 147 149 151 148 144 141
214 221 233 244 225 244 262 278 277 269 253 244 213 182 196 223 23 184 319 29 72 122 135 138 144 153 159 165 171 176 180 181 185 191 186 184 185 175 172 178 182 187 188 187 188 190 190 190 193 192 192 191 193 195 193 191 191 190 186 182 183 185 187 190 191 194 197 195 193 194 190 185 185 185 186 188 189 190 188 184 182 178 171 168 169 169 166 161 158 153 149 148 149 151 150 148 145
204 210 220 247 258 289 283 281 277 295 256 214 209 161 140 196 153 97 353 35 107 126 133 139 146 155 162 170 175 178 182 184 189 194 191 188 184 178 179 183 186 193 194 192 194 196 195 194 194 195 195 193 196 198 197 195 194 193 189 187 188 189 192 194 193 195 200 200 198 196 194 194 191 190 193 192 192 196 195 191 190 189 181 175 173 171 169 167 163 158 153 149 149 151 152 151 150
177 195 223 245 269 308 273 273 273 292 263 215 229 143 105 160 174 115 47 110 133 132 135 143 150 157 166 173 179 184 185 187 190 193 194 193 188 186 188 190 192 197 197 197 201 201 198 196 194 195 196 197 201 201 199 201 200 196 191 191 193 194 196 196 197 198 201 203 202 200 198 201 200 194 196 197 199 203 202 197 193 192 185 178 177 173 170 171 168 163 157 152 150 153 153 154 156
157 177 209 239 267 265 246 280 288 297 266 191 199 170 98 135 174 114 122 146 144 137 140 149 158 161 169 175 180 188 191 191 192 194 200 201 196 192 192 195 198 198 199 201 204 204 201 198 196 196 196 201 205 202 201 204 204 201 196 196 198 199 199 198 201 203 205 208 207 204 203 206 206 198 200 203 206 206 203 201 194 192 187 178 178 175 172 172 171 166 160 155 153 153 154 157 161
152 173 216 241 290 252 239 308 302 265 264 178 181 179 84 93 66 41 65 156 148 142 148 155 164 168 171 177 183 193 194 192 195 201 206 204 200 197 197 199 201 199 199 203 205 208 206 200 199 199 199 205 208 205 205 205 205 208 204 201 204 206 204 202 206 210 211 214 210 208 207 209 208 205 209 210 207 206 203 201 196 192 190 184 178 174 172 172 172 169 162 157 157 157 157 161 168
146 144 257 276 287 235 284 14 327 178 132 288 213 196 82 41 19 7 344 191 159 152 161 163 166 170 175 182 190 197 198 197 200 207 210 207 207 209 209 209 210 204 197 202 206 210 208 202 202 203 204 205 207 210 211 207 207 214 211 209 214 214 212 210 211 214 214 216 216 213 210 211 213 213 214 214 209 208 205 202 200 196 193 190 185 178 174 175 173 170 166 160 158 161 162 167 173
147 143 193 316 209 199 32 13 236 170 99 328 255 210 74 40 14 359 348 228 187 168 168 168 167 174 181 186 193 201 205 207 209 211 214 215 215 220 221 221 220 212 201 202 207 211 211 208 207 205 210 210 209 212 213 210 209 214 216 216 221 220 218 216 215 217 217 217 218 217 215 215 216 213 214 219 215 210 208 207 206 201 197 193 192 189 181 180 179 174 171 164 160 162 163 168 173
84 172 175 102 202 210 25 32 334 138 77 3 293 143 94 44 12 1 10 235 238 220 175 177 179 183 186 188 196 206 213 218 219 218 220 224 228 232 232 229 227 223 218 209 205 210 212 212 210 204 209 212 210 211 214 218 218 220 225 226 227 225 221 221 222 222 220 220 219 217 218 219 216 213 218 225 223 217 211 209 208 204 199 195 195 195 189 184 182 179 179 176 170 166 166 165 168
49 217 177 142 192 188 59 74 11 354 118 42 360 106 107 27 4 5 14 12 265 274 190 192 196 192 196 198 203 215 223 225 227 229 226 228 235 240 242 241 238 235 231 224 216 218 219 221 218 206 204 209 213 217 218 226 230 225 228 231 232 229 225 225 229 230 225 222 221 219 219 219 219 221 226 229 229 225 217 212 211 205 199 197 197 197 194 191 186 180 181 185 183 174 170 169 165
131 172 133 128 193 174 140 123 18 358 132 102 62 74 78 27 8 15 16 10 360 335 284 203 205 199 202 209 213 225 236 236 235 240 240 240 246 248 251 257 260 266 289 322 338 341 315 269 248 229 218 214 219 224 217 224 234 234 234 236 237 239 236 231 232 235 232 228 226 225 223 219 220 226 228 228 229 228 223 218 213 204 199 200 199 198 197 196 192 186 181 183 191 186 175 172 169
155 160 153 140 162 175 160 145 19 359 43 92 91 77 55 34 22 24 21 22 39 27 8 209 206 200 197 210 220 226 239 244 246 268 272 267 270 276 283 295 319 5 26 29 24 21 17 360 330 289 265 224 220 231 223 221 231 237 238 238 239 243 244 239 239 239 239 239 234 229 226 221 223 230 231 227 225 227 224 221 216 207 200 200 202 201 199 198 196 196 193 184 187 188 180 174 168
156 159 162 146 148 170 215 195 360 54 70 65 81 83 53 34 25 25 29 36 43 35 26 33 36 194 193 213 224 232 247 258 312 3 327 307 307 318 326 352 25 39 40 36 21 3 1 6 7 356 342 323 236 245 245 237 235 236 238 241 243 245 248 247 248 249 249 247 243 237 229 225 228 235 237 231 226 226 225 222 222 218 208 203 204 203 201 201 198 197 196 182 174 176 179 177 168
129 125 130 128 152 156 187 242 44 85 84 61 76 81 58 41 33 29 40 48 45 39 36 39 38 40 34 306 263 264 270 306 32 30 4 356 6 10 12 34 52 51 24 336 299 285 241 202 39 350 289 254 233 225 227 232 232 232 233 238 242 245 247 249 252 255 256 253 251 246 236 231 235 238 239 236 232 229 225 220 221 224 221 213 210 208 207 204 198 194 186 178 186 186 177 177 174
119 128 122 129 176 148 153 38 26 56 109 114 99 80 61 48 45 39 47 52 48 42 43 47 44 44 36 22 15 359 354 27 37 33 25 24 28 39 55 66 68 48 276 262 244 235 219 217 228 245 238 225 219 211 213 222 226 230 232 235 237 234 240 250 251 252 256 256 252 250 245 238 238 240 240 239 235 231 228 223 220 224 226 224 218 213 212 206 194 189 181 176 192 194 181 178 178
115 129 133 156 172 137 192 73 24 20 116 152 117 84 68 54 54 52 54 56 55 54 55 55 52 51 47 38 33 27 27 32 33 34 35 34 39 49 62 74 65 358 314 48 90 120 259 256 257 252 234 223 227 224 226 228 226 230 233 236 237 226 228 240 237 235 245 250 250 252 251 244 239 240 240 240 238 234 234 229 224 225 227 230 230 219 211 205 196 192 188 182 183 186 187 186 183
120 147 166 165 145 167 173 117 40 19 83 149 125 94 73 57 57 57 58 61 61 61 61 59 57 55 52 48 45 42 38 34 36 39 39 42 50 53 53 63 55 354 333 43 102 182 252 267 276 270 254 247 242 236 232 226 220 219 218 230 237 230 232 238 227 221 230 235 239 249 252 249 246 245 243 241 242 238 237 235 230 228 227 228 232 227 216 206 197 194 195 192 181 176 183 187 189
165 184 184 167 177 213 152 113 119 58 66 148 129 101 67 39 46 54 58 63 61 61 63 59 56 55 53 50 46 45 42 38 38 35 33 39 49 54 52 55 55 36 20 11 315 274 269 273 282 286 283 274 255 236 220 207 204 207 210 224 234 231 235 239 229 225 232 234 233 239 247 249 249 251 248 242 245 243 241 241 237 231 228 225 225 228 229 220 203 194 195 195 189 182 180 184 189
183 219 206 186 183 192 130 117 149 123 137 204 168 123 93 33 41 53 54 62 60 60 63 58 54 51 48 48 45 42 40 37 38 34 30 33 38 44 44 41 39 34 21 358 329 314 303 292 293 298 301 296 279 254 232 213 198 197 206 217 222 221 226 239 240 237 241 244 241 238 243 246 245 252 249 240 246 248 243 244 241 235 232 228 225 222 228 228 212 196 195 194 194 191 182 180 187
184 212 195 180 164 171 166 158 182 163 161 163 306 222 142 73 45 39 40 66 65 61 62 57 54 50 46 48 44 41 38 33 34 32 29 30 30 33 33 29 28 26 15 359 351 346 338 328 321 322 324 316 304 287 266 243 219 210 215 223 227 226 232 250 256 251 246 246 247 244 246 248 247 251 246 239 248 249 242 241 242 239 234 231 227 220 221 224 213 197 198 198 196 192 185 183 187
176 185 170 162 167 188 183 179 215 229 116 113 72 251 137 117 50 10 19 75 70 62 62 56 54 52 47 49 44 40 38 33 32 29 25 25 24 25 25 24 25 25 19 11 7 4 358 357 354 354 356 352 341 318 286 261 250 248 237 232 236 236 241 251 259 260 254 249 247 248 250 252 252 254 248 239 244 247 241 237 237 235 232 229 227 223 221 222 216 202 197 199 196 194 192 191 190
195 170 163 159 168 183 172 190 211 107 207 177 144 219 139 114 30 350 26 84 73 64 64 58 52 49 46 47 45 41 37 33 32 28 23 22 20 20 18 18 23 27 25 17 9 4 359 0 360 1 6 7 9 1 323 272 249 250 245 237 240 246 251 252 253 258 257 253 250 250 252 252 250 249 244 237 238 242 237 231 228 227 227 226 226 226 220 220 221 209 200 201 199 198 198 195 192
146 135 125 107 90 96 123 198 194 121 242 202 152 255 169 114 76 132 110 96 82 70 66 63 55 48 44 43 42 40 35 30 28 24 22 20 17 15 12 14 21 25 25 21 15 9 1 360 358 358 3 1 6 13 357 302 250 246 245 237 237 244 250 253 253 253 251 251 254 253 250 248 246 245 243 238 236 237 231 225 226 226 224 223 226 226 220 220 224 216 208 208 204 202 203 203 198
129 127 112 100 86 69 88 66 97 196 233 191 66 298 258 138 177 186 135 88 86 81 68 62 54 45 40 39 39 36 33 28 22 21 19 16 13 11 12 14 15 18 21 20 17 13 6 3 0 359 0 356 359 9 0 329 278 260 252 244 247 252 255 256 254 253 251 249 253 256 255 252 246 243 243 239 232 230 224 221 227 227 222 223 225 225 221 221 222 217 211 210 208 209 211 210 204
135 133 133 130 111 115 133 91 186 213 213 118 36 311 316 133 172 175 137 89 84 82 67 63 57 46 37 38 40 36 33 28 23 21 19 15 14 13 14 12 8 11 15 13 11 10 7 5 4 2 3 360 359 360 348 327 308 294 283 275 272 270 267 263 260 259 254 249 252 260 265 264 256 245 240 234 226 222 220 219 225 226 222 223 224 222 222 221 220 217 212 212 213 214 215 214 207
173 147 157 161 151 165 174 172 194 208 201 66 333 306 49 87 133 152 132 104 92 81 71 75 72 60 48 43 41 38 34 30 25 22 20 16 12 13 15 12 8 6 7 6 5 6 5 4 4 3 3 2 360 355 347 336 326 319 309 297 290 286 281 275 271 268 262 257 257 260 264 264 259 250 239 235 229 222 221 220 221 224 223 222 222 222 222 222 222 220 217 217 217 213 214 218 215
180 164 174 173 158 166 174 172 175 195 161 60 321 295 109 113 135 136 122 107 96 85 78 81 80 72 63 54 49 46 41 35 30 22 19 15 9 10 11 9 6 3 0 1 2 2 3 3 4 3 1 2 2 357 352 343 329 318 315 311 306 300 291 283 277 275 272 268 264 261 261 262 261 254 245 249 248 232 223 223 222 225 224 221 221 222 222 222 223 222 220 220 220 217 215 220 220
176 163 175 172 165 170 167 164 163 161 131 72 356 330 131 135 133 124 120 106 91 85 80 79 80 74 68 62 53 49 46 39 33 26 21 17 13 12 10 6 5 1 359 359 359 360 2 2 2 1 359 2 4 2 357 350 335 321 321 322 315 308 298 289 283 280 278 276 272 265 261 262 263 259 253 256 256 240 225 225 224 224 224 221 219 218 216 217 219 220 220 219 219 217 215 221 223
180 147 150 176 177 134 109 86 87 116 117 72 19 39 88 101 98 108 114 103 91 87 81 77 75 70 65 58 49 46 45 39 32 26 19 14 13 15 12 7 6 4 1 360 359 359 360 1 3 2 1 2 3 3 359 354 345 331 326 324 317 311 303 290 284 283 280 276 275 271 267 266 264 264 263 258 255 246 235 230 226 222 222 220 215 214 214 214 215 217 218 216 216 215 214 218 221
146 179 180 165 102 110 116 107 46 68 143 111 30 104 119 123 113 113 113 106 102 94 83 79 73 68 62 54 48 44 41 38 30 25 19 12 10 12 13 11 9 6 3 360 358 357 357 359 0 1 3 3 3 1 357 354 351 340 328 322 314 308 301 291 286 287 283 277 276 273 270 266 260 263 264 256 250 246 238 233 228 224 221 218 215 215 215 215 217 217 214 212 214 217 216 216 217
143 177 169 124 71 84 110 126 102 142 146 111 37 154 155 166 145 133 129 115 107 93 80 77 67 61 59 53 49 44 39 35 28 23 18 13 9 9 10 11 9 7 4 2 360 357 357 356 355 355 357 359 1 359 355 352 352 345 334 326 318 307 299 295 291 288 284 277 274 271 269 264 257 258 260 254 248 242 238 234 226 219 218 217 217 216 214 215 219 218 214 210 210 213 214 213 213
129 155 146 134 162 162 148 142 151 155 131 121 151 159 182 186 162 157 149 128 113 92 71 67 60 54 54 50 45 41 35 29 24 21 15 12 11 8 7 7 5 4 4 3 2 1 1 1 357 354 351 351 357 359 358 356 354 349 340 331 324 313 301 295 290 287 281 274 269 265 262 259 255 251 249 250 249 239 233 231 222 215 214 216 217 214 213 216 218 216 212 208 206 209 211 212 210
75 129 129 48 161 161 158 126 150 151 137 152 150 168 204 183 172 194 155 131 124 103 76 66 62 57 55 49 42 37 33 26 20 16 14 12 10 8 7 6 4 3 2 1 2 4 5 4 1 358 354 352 354 357 357 354 351 352 348 339 331 325 312 296 287 284 276 271 271 265 258 255 252 245 239 244 246 238 231 227 224 220 213 213 215 212 210 215 217 215 213 211 210 210 212 212 208
133 150 148 121 77 107 132 80 42 131 144 154 150 178 193 138 349 209 143 127 123 109 95 85 73 66 62 53 45 38 33 28 21 18 17 13 10 9 8 8 5 3 3 3 3 3 3 4 4 3 0 356 353 351 351 348 344 349 352 346 340 338 330 312 296 286 274 269 271 265 259 257 254 248 242 237 235 233 231 230 228 222 210 208 215 215 213 216 217 214 210 210 214 216 216 211 204
151 158 162 145 124 140 154 147 93 72 125 152 154 165 155 47 355 133 127 121 119 112 107 99 83 74 69 57 49 43 34 28 24 21 19 16 13 10 8 8 8 6 5 3 3 2 1 1 2 3 3 0 356 352 350 348 346 346 350 349 344 339 335 327 313 296 283 276 274 268 259 254 251 251 249 241 232 228 227 227 226 223 215 211 215 216 212 212 214 212 206 206 211 215 214 205 201
Height
789 789 788 789 788 788 790 791 800 807 808 813 812 808 800 794 795 793 789 786 784 781 777 777 777 777 779 779 779 782 785 788 790 794 796 795 793 794 795 796 797 798 800 802 804 806 807 809 810 811 812 812 813 814 815 816 817 817 818 819 820 820 821 822 822 824 825 826 827 828 829 830 831 831 831 832 833 833 834 835 835 836 836 837 837 838 838 838 839 839 839 840 840 841 841 842 842
789 789 789 789 788 789 794 794 806 814 812 814 810 804 798 795 797 791 787 786 784 781 778 778 778 779 779 776 776 780 786 789 789 790 792 793 794 795 796 797 798 799 801 802 804 806 807 809 810 811 812 813 813 814 815 816 817 818 819 820 821 821 822 823 823 824 825 827 828 830 830 831 831 832 832 833 834 835 835 836 837 837 838 838 839 839 840 840 840 840 841 841 841 842 843 843 843
789 790 789 789 789 790 795 797 808 819 815 812 803 799 799 795 793 788 786 784 782 780 779 778 778 781 779 778 780 783 789 790 789 789 792 794 794 796 797 798 799 800 801 802 804 806 807 809 810 811 812 813 814 815 816 817 817 818 819 820 821 822 823 823 824 825 826 828 829 831 831 831 832 833 833 834 835 836 837 837 838 838 839 839 840 841 841 841 842 842 842 842 842 843 843 844 844
789 789 790 789 791 792 797 802 809 814 812 812 802 794 796 792 788 787 784 782 781 780 781 780 781 782 779 784 785 786 792 791 789 789 792 794 794 796 797 798 799 801 802 803 805 806 808 809 810 811 813 814 815 816 816 817 818 819 820 821 822 823 824 824 825 826 827 829 830 831 832 832 833 834 834 835 836 837 838 838 839 839 840 841 841 842 842 842 843 843 843 843 844 844 844 844 845
789 790 790 788 793 795 800 810 815 813 804 805 798 789 793 789 786 788 784 782 781 781 782 781 784 783 780 786 787 789 794 791 790 790 792 794 795 796 797 798 800 801 803 804 805 807 809 810 811 812 813 814 815 816 817 818 819 820 821 822 823 824 825 825 826 827 829 830 831 832 833 833 834 835 835 836 837 837 838 839 840 841 841 842 842 842 842 843 843 844 844 845 845 845 845 845 845
790 790 790 789 794 796 802 812 815 810 796 796 794 786 790 789 788 789 784 781 780 781 781 782 785 785 787 790 787 790 793 791 791 791 792 795 796 797 798 799 801 802 803 805 806 808 810 811 812 813 814 815 816 817 818 819 820 821 822 823 824 825 826 827 827 829 830 831 832 833 834 834 835 836 836 837 838 839 839 840 841 842 842 842 843 843 843 843 844 844 845 846 846 846 846 846 846
790 790 791 792 797 798 805 810 808 806 796 794 793 786 788 789 788 788 786 783 782 782 781 783 782 784 794 793 790 792 791 791 790 792 793 794 796 797 798 800 801 803 804 805 807 808 810 811 812 813 814 815 816 817 818 819 820 822 822 823 825 826 827 828 829 830 831 832 833 834 835 836 836 837 838 839 839 840 840 841 842 842 843 843 843 843 844 844 844 845 846 847 847 847 847 847 846
789 792 794 796 802 805 810 812 808 806 798 794 793 788 787 787 787 788 787 784 784 784 782 784 782 788 797 793 794 795 791 792 791 792 794 794 796 797 799 800 801 803 804 805 807 808 810 811 812 814 814 816 817 818 819 820 821 822 823 824 825 826 827 829 830 831 832 833 835 835 836 837 837 838 839 840 840 841 841 842 842 843 844 844 844 844 844 845 845 846 847 848 848 848 848 847 847
790 792 796 799 805 810 812 812 807 803 799 794 791 788 786 785 786 786 785 783 784 784 783 783 781 790 798 795 796 794 793 794 793 793 794 795 797 798 799 800 802 803 804 806 807 809 810 812 813 814 815 815 816 818 819 820 821 822 823 824 826 827 828 830 831 832 834 835 836 836 837 838 838 839 840 841 842 842 842 843 843 844 844 845 845 844 845 845 847 848 849 849 849 849 849 848 848
791 793 797 801 806 812 813 810 805 800 796 792 789 786 783 782 783 784 783 783 783 783 784 782 781 789 795 797 797 795 795 796 794 795 795 796 797 798 800 801 802 803 805 806 808 810 811 813 814 815 815 816 816 817 818 820 821 822 823 825 826 827 829 830 832 833 835 836 837 837 838 839 840 840 841 842 843 843 843 844 844 845 845 846 845 845 846 846 848 849 850 850 850 850 850 849 849
794 795 797 804 810 813 812 807 802 796 792 791 788 782 780 780 782 784 782 783 783 783 783 781 785 790 794 798 799 797 796 796 795 795 796 797 798 799 800 801 802 803 805 806 808 810 812 814 815 815 815 816 816 817 818 819 821 822 824 825 827 828 829 831 832 834 835 836 837 838 839 839 841 842 842 843 844 844 844 844 845 846 846 846 846 846 847 848 849 850 851 851 851 851 851 851 850
796 799 798 806 812 811 810 808 802 796 791 789 785 779 780 781 781 781 780 783 783 783 782 781 784 786 795 802 800 798 797 797 797 796 797 797 798 799 800 801 803 804 805 807 808 810 812 813 814 815 815 816 816 817 818 820 821 822 824 825 827 828 830 831 833 834 835 836 837 838 839 840 841 842 843 844 844 845 845 845 846 846 847 847 847 847 848 849 850 851 852 852 852 852 852 852 851
796 800 799 806 811 809 811 809 804 801 792 789 785 780 781 781 780 778 778 782 781 783 782 779 780 783 798 804 799 798 797 797 797 797 797 797 799 800 801 802 803 804 805 807 808 810 811 812 814 815 815 816 817 818 819 820 822 823 824 826 827 829 830 831 833 834 836 837 838 839 840 841 842 843 844 845 845 846 846 846 846 846 847 848 848 849 849 850 850 851 852 853 853 853 853 853 853
794 798 798 806 814 812 810 806 802 802 793 787 786 782 781 780 780 778 777 783 784 782 780 778 778 785 798 803 801 799 797 797 797 797 797 798 799 800 802 803 804 805 806 807 808 810 811 812 813 815 816 818 819 820 821 822 823 824 825 826 827 829 830 832 833 835 836 837 838 839 840 841 843 844 845 845 846 846 846 847 847 847 847 848 849 850 850 851 851 852 853 853 853 854 854 854 854
793 797 799 805 813 811 808 804 802 802 794 787 786 783 782 780 780 779 777 782 785 780 778 778 778 786 794 797 800 797 795 797 796 797 797 799 800 802 803 804 804 805 807 808 809 811 812 813 814 815 816 818 819 820 822 823 824 824 825 827 828 829 831 833 834 836 837 838 839 840 841 842 843 844 845 845 846 846 846 847 847 847 847 848 849 850 851 852 852 853 854 854 854 854 855 855 855
793 795 801 806 810 810 806 804 804 802 793 786 785 783 783 781 778 780 777 777 782 780 780 783 781 784 788 788 791 791 794 796 796 798 798 800 801 803 804 804 805 805 807 808 809 811 812 813 813 815 816 817 818 820 821 823 824 825 826 828 829 830 832 833 835 836 837 838 839 840 841 842 843 844 845 845 846 846 846 847 847 847 848 848 849 850 851 853 853 853 854 855 855 855 856 856 856
792 794 804 808 810 809 804 801 800 797 790 785 785 784 785 783 779 778 776 774 781 784 784 787 784 783 785 785 787 789 793 795 796 798 798 800 801 803 804 804 805 805 807 808 809 810 811 812 813 814 815 817 818 819 821 822 824 825 827 828 830 831 832 833 834 835 837 838 839 840 841 842 843 844 845 846 846 846 847 847 847 847 848 849 849 850 851 853 854 854 855 856 856 856 856 857 858
793 799 806 807 807 803 797 796 794 793 790 786 785 786 785 784 782 779 778 781 784 786 788 789 787 785 786 786 788 790 793 794 795 796 797 799 800 802 802 804 805 805 807 808 809 810 811 812 813 814 816 817 819 820 821 822 824 825 827 828 830 831 832 833 834 835 836 837 838 840 841 842 843 844 845 846 846 847 847 847 847 847 848 849 849 850 852 853 854 855 856 857 857 857 857 858 859
796 803 806 802 801 797 792 792 792 792 791 788 786 787 785 783 783 780 782 788 786 789 794 793 793 792 790 790 791 792 792 793 795 795 797 799 800 801 802 803 804 805 807 808 809 810 811 812 814 815 816 817 819 820 821 822 824 825 827 828 830 831 832 833 834 835 835 836 838 839 840 841 842 844 845 846 846 847 848 848 848 848 849 849 850 850 852 853 854 855 856 857 858 858 858 859 860
795 801 803 797 795 794 792 792 791 790 790 789 788 786 785 782 781 781 783 789 786 788 794 796 797 796 794 792 791 792 792 794 795 796 797 799 800 801 801 802 803 804 806 807 808 810 811 812 814 816 817 818 818 820 821 823 824 825 827 828 829 830 831 833 834 835 835 836 837 839 840 841 842 843 845 845 846 847 848 848 849 849 850 850 851 851 852 854 855 856 857 858 859 859 859 859 860
795 797 797 793 795 795 789 789 789 789 790 790 788 785 784 782 782 782 782 786 786 784 785 789 793 793 793 792 791 792 793 794 796 797 798 799 800 801 801 802 803 805 806 808 808 810 811 812 814 816 817 818 819 820 821 822 824 825 826 827 828 829 830 832 833 834 835 836 838 839 840 841 842 843 844 845 846 847 848 849 850 850 851 851 852 852 852 854 855 856 857 858 859 860 860 860 861
794 794 792 791 795 794 786 787 788 788 789 788 787 785 784 783 783 783 781 782 783 781 781 782 786 788 789 789 790 791 793 794 796 797 798 800 800 801 802 803 805 806 807 808 808 810 811 812 814 815 816 818 819 820 820 822 823 824 824 825 827 828 830 831 833 834 835 837 838 839 840 841 842 843 844 845 845 846 847 849 850 851 851 851 852 853 853 854 855 856 857 858 859 860 860 861 861
793 793 791 790 791 791 786 786 787 787 789 788 787 784 784 783 783 785 783 781 781 780 779 779 782 785 785 787 789 791 792 794 795 796 797 799 800 800 802 804 805 806 807 808 809 810 811 812 813 814 815 816 817 819 820 821 822 824 825 826 827 829 830 832 834 835 836 837 838 839 839 840 842 843 844 845 845 846 847 848 849 850 851 851 852 853 853 854 855 856 857 858 859 860 860 861 862
792 792 790 788 788 788 786 785 785 787 788 786 785 785 785 784 784 786 783 781 781 780 778 779 782 784 786 788 789 790 792 793 795 796 797 798 799 800 802 804 805 806 807 808 809 809 810 811 812 813 814 815 817 818 820 821 823 824 825 826 828 829 831 833 834 835 836 837 838 839 839 840 842 843 845 846 846 846 846 847 849 850 850 851 852 852 853 854 855 856 857 858 859 860 860 861 862
792 791 789 787 786 786 784 784 784 786 786 784 785 786 786 784 784 784 781 781 782 780 779 781 783 785 787 789 790 791 792 794 796 796 798 799 799 801 803 804 805 806 806 807 808 808 808 810 811 813 815 816 818 819 820 822 823 825 826 827 828 830 832 833 835 836 837 837 839 839 839 840 841 843 844 846 846 846 846 847 848 849 850 850 851 852 853 853 854 856 857 858 859 859 860 861 862
789 787 787 786 785 784 783 783 782 784 784 783 784 784 785 784 784 784 784 784 783 781 782 784 785 787 789 789 790 790 792 794 795 796 798 799 801 802 803 803 804 805 805 806 807 808 808 810 812 814 816 818 819 820 821 823 824 826 827 828 830 831 832 833 835 836 837 838 839 839 839 840 841 842 844 845 846 846 846 847 847 848 849 850 851 851 852 853 854 855 856 858 859 859 860 861 861
784 785 786 784 785 784 783 782 781 783 782 781 781 782 784 784 784 786 788 786 783 784 786 787 787 789 789 789 790 791 792 794 795 796 798 799 800 801 802 802 803 804 805 806 806 807 809 810 812 814 816 818 819 820 822 824 825 826 828 829 830 832 833 834 835 836 837 838 839 839 839 840 841 842 843 845 846 846 846 846 847 847 848 849 850 851 852 853 854 855 856 857 858 859 860 860 861
782 784 785 785 785 784 782 781 782 781 779 779 779 780 782 782 782 785 787 786 784 786 788 789 789 790 790 790 791 791 792 794 795 796 796 797 798 800 801 801 801 803 804 805 806 807 809 811 813 815 817 818 819 820 822 824 826 827 829 830 831 832 833 834 835 836 837 838 838 839 839 840 841 842 843 844 846 846 846 847 847 847 848 849 850 852 852 853 854 855 856 857 858 859 860 860 861
782 783 784 784 783 782 781 780 783 781 779 777 777 781 784 783 784 786 787 786 785 788 790 790 791 791 791 791 792 792 792 794 795 795 795 795 796 798 799 799 800 802 804 805 806 807 808 811 813 815 817 818 819 821 822 824 826 828 829 830 831 832 833 834 835 836 836 837 838 838 838 839 840 841 842 843 845 845 846 846 847 847 848 849 850 851 852 853 854 855 856 857 858 859 860 860 861
783 784 785 785 786 784 781 782 783 780 780 777 777 787 790 786 789 789 789 787 786 789 790 790 791 792 792 792 792 792 792 793 793 794 794 795 796 796 797 798 799 801 803 805 805 806 808 811 814 816 817 818 819 821 822 825 827 829 830 831 832 833 833 834 835 835 836 837 837 838 838 838 839 840 841 843 844 844 845 845 846 847 848 849 849 851 852 853 854 855 856 857 858 859 860 861 861
784 786 789 792 794 788 780 782 784 779 781 778 778 791 793 791 794 792 790 789 788 790 791 791 792 792 792 792 793 792 791 792 793 794 795 796 796 797 797 798 799 801 802 804 805 806 809 812 814 815 816 818 819 820 822 825 827 829 830 831 831 832 833 833 834 835 835 836 836 837 838 838 838 839 841 842 843 844 844 845 845 846 847 848 849 850 852 853 854 855 856 856 858 859 860 861 862
788 790 795 798 796 790 783 783 784 781 781 779 780 791 793 794 798 794 791 790 790 792 793 793 793 792 793 793 793 793 792 792 793 795 797 797 798 798 798 798 799 800 802 804 805 807 810 812 814 815 816 818 819 820 822 824 827 829 829 830 831 831 832 832 833 834 835 835 835 836 837 838 838 839 840 841 842 843 843 844 845 845 846 847 848 849 851 852 853 854 855 855 857 858 860 861 862
792 792 797 799 795 791 788 784 784 783 780 780 782 789 795 799 800 797 794 792 792 793 794 796 796 795 795 795 795 795 794 795 795 796 798 799 799 799 799 799 800 801 803 805 807 809 812 814 815 816 816 818 819 821 822 823 825 827 828 829 830 830 831 832 833 834 834 834 834 834 836 837 838 839 839 840 841 842 842 843 843 844 844 845 847 848 849 851 852 853 854 855 856 857 859 860 861
796 795 796 802 799 795 792 787 785 783 781 783 784 791 804 808 804 801 799 795 794 795 795 797 797 797 797 796 797 797 797 797 798 798 799 800 801 801 801 801 802 805 808 811 813 815 817 818 819 818 818 819 821 822 823 824 825 826 827 828 829 830 831 832 833 833 834 834 834 834 835 836 837 838 838 839 840 841 841 842 842 843 843 844 845 847 848 849 851 852 853 854 855 856 858 859 860
794 795 794 801 801 798 796 790 787 784 783 786 789 798 810 810 806 805 803 800 798 799 798 796 797 798 798 798 797 798 797 798 799 800 800 802 803 804 804 804 806 810 813 816 818 820 822 823 823 822 821 821 822 823 823 824 825 826 827 828 829 830 831 833 833 834 834 834 834 834 835 835 836 836 836 836 838 839 840 841 842 842 843 843 844 845 847 848 849 850 852 853 855 856 857 859 860
788 791 789 793 795 795 795 790 789 789 790 797 800 806 813 812 811 809 806 804 802 802 801 798 798 798 799 799 798 799 798 799 801 802 802 803 804 805 806 808 809 812 814 816 817 817 818 821 824 826 826 824 823 823 824 824 825 826 827 828 829 831 832 833 834 834 834 834 834 834 834 834 834 835 835 835 836 837 839 840 842 842 842 842 843 844 845 846 847 849 851 853 854 855 856 858 859
786 790 791 794 793 791 791 789 791 791 797 812 811 812 817 816 815 812 808 806 805 806 806 804 803 802 802 801 800 800 800 801 803 803 804 804 805 806 807 809 809 810 811 811 810 809 810 812 817 822 823 821 820 820 820 821 822 824 825 826 828 830 832 833 834 833 833 833 834 834 833 832 832 833 833 834 835 836 837 838 839 840 841 841 841 843 844 845 846 848 850 852 853 854 855 856 858
787 789 792 797 794 790 790 791 793 790 798 816 813 812 821 820 817 814 808 808 810 812 810 809 807 806 806 805 804 804 802 803 804 804 805 805 806 806 807 808 808 808 807 808 807 806 807 808 808 810 812 814 815 815 815 816 817 819 820 822 824 827 829 830 832 833 833 832 832 832 831 830 830 830 831 833 834 835 835 836 837 838 840 841 841 841 843 844 846 847 848 850 852 853 854 855 857
787 790 792 794 793 793 792 793 796 791 797 813 812 813 823 821 816 814 810 812 814 813 811 810 809 809 810 809 809 808 806 806 806 806 806 806 807 807 807 809 809 808 808 808 809 809 810 810 809 810 811 813 814 814 815 815 816 817 819 820 822 825 825 824 825 827 828 828 828 828 827 827 827 828 830 831 833 835 836 836 836 836 838 840 841 841 842 843 844 846 847 848 850 852 854 855 856
790 791 791 793 795 794 792 794 799 795 797 806 806 810 820 819 816 814 811 813 813 811 810 809 810 812 813 813 812 812 811 810 809 808 808 807 808 808 808 809 809 809 809 809 809 810 810 810 810 811 812 812 812 812 812 813 815 817 818 820 821 822 821 820 820 820 819 818 820 822 823 824 824 825 828 830 832 834 836 836 836 835 835 837 840 841 842 842 843 844 846 847 849 850 852 854 855
795 792 789 791 793 791 790 795 799 799 801 801 798 806 818 821 821 818 813 813 814 812 812 812 813 815 815 816 815 815 815 814 813 812 810 810 809 809 810 809 810 810 809 809 809 809 809 809 809 809 811 811 811 810 809 811 813 815 818 819 819 819 819 820 821 820 816 814 814 816 818 820 821 823 827 828 829 832 833 835 836 836 835 834 836 838 841 843 842 843 845 846 847 848 850 852 853
797 793 787 786 786 787 792 795 795 800 807 805 798 806 822 826 825 823 817 816 818 815 814 817 818 818 819 820 820 819 819 818 818 817 815 814 812 812 812 811 811 811 811 810 809 809 809 809 809 809 811 811 811 811 811 811 812 813 816 816 817 817 818 819 820 820 818 815 814 813 814 816 818 822 825 826 827 828 830 832 833 834 835 833 832 834 838 842 842 842 844 845 846 846 848 850 852
795 789 784 785 784 786 791 791 791 797 804 806 802 805 821 828 827 826 821 819 822 818 818 821 821 824 824 824 824 823 824 823 821 821 819 818 817 816 815 814 814 813 812 811 809 809 808 809 810 810 812 812 812 813 813 813 813 813 813 813 814 815 816 815 815 817 816 814 813 812 812 812 815 819 822 824 824 824 825 828 830 832 833 832 830 831 835 839 840 839 842 844 845 846 847 848 850
790 783 783 787 785 786 789 788 790 796 799 804 804 800 812 826 829 828 823 821 824 821 822 825 825 828 828 827 828 827 827 827 826 825 823 822 821 820 819 818 817 815 814 811 809 809 808 808 810 811 812 813 813 813 813 813 813 812 811 811 812 812 812 812 812 813 813 812 811 810 809 809 811 815 817 819 820 819 819 822 826 829 831 830 828 829 831 836 837 837 839 842 843 844 845 846 848
784 782 784 785 784 785 787 786 789 798 800 800 802 800 808 827 831 826 823 822 825 826 826 828 828 830 831 830 830 830 831 830 829 829 827 826 824 823 822 820 818 817 816 814 812 810 809 809 810 812 812 813 813 812 812 812 811 809 808 808 809 809 810 810 810 811 811 811 809 808 807 807 809 811 813 815 816 816 816 818 821 825 828 828 826 827 829 834 836 836 836 838 840 842 843 845 846
781 785 787 786 789 791 791 790 789 798 802 798 804 804 808 828 834 826 824 824 826 829 829 829 831 832 833 833 832 833 833 833 832 831 830 829 827 825 823 821 819 818 817 816 815 812 811 811 811 812 813 813 812 811 810 810 808 806 805 805 805 806 807 807 808 809 810 810 809 807 806 806 807 809 809 811 812 813 815 816 818 820 823 825 824 824 828 832 835 835 835 836 837 839 841 843 844
779 784 786 788 793 794 794 796 792 799 805 802 812 813 804 821 835 828 826 826 825 829 831 831 833 835 836 836 835 835 835 835 834 833 831 830 829 826 824 821 820 819 818 817 815 814 813 812 812 811 812 812 811 809 808 807 806 804 804 805 805 805 806 806 807 807 808 809 809 808 808 806 806 807 807 808 809 811 812 814 816 817 820 821 822 823 826 829 832 833 833 834 835 836 839 841 842
778 779 783 790 796 796 797 800 800 806 808 805 817 816 801 816 835 830 827 828 827 829 832 834 836 839 840 839 838 838 838 838 836 834 834 832 830 828 825 823 821 819 818 817 816 816 814 813 812 812 811 811 810 809 807 805 804 804 805 806 805 805 806 806 806 807 808 808 809 809 809 807 806 806 806 806 807 808 809 812 813 815 816 818 820 822 824 826 829 830 830 832 832 833 837 840 840
779 778 782 791 800 805 805 806 807 807 805 808 817 813 809 822 831 826 827 830 830 831 833 836 840 842 843 842 841 841 840 840 838 837 836 834 832 830 828 826 824 822 821 820 819 817 816 815 813 812 811 810 809 808 806 805 804 803 804 804 804 805 805 806 806 806 807 808 808 809 808 807 805 804 803 804 805 806 807 808 811 812 813 815 818 821 822 823 826 828 828 829 830 831 835 838 838
779 778 779 787 798 810 816 817 816 810 806 812 816 811 819 831 828 823 829 832 831 833 836 838 841 843 845 845 844 843 843 842 842 841 839 837 835 833 832 830 828 826 824 822 821 819 817 816 814 813 812 810 809 807 806 806 804 803 803 802 803 803 804 804 804 804 805 806 807 807 807 806 804 802 802 802 803 805 805 805 807 809 811 813 816 818 820 821 823 825 826 827 828 829 832 835 836
776 774 774 781 787 796 808 810 809 809 808 811 814 815 821 829 829 826 828 832 832 834 838 839 842 844 845 846 845 845 846 845 845 844 843 841 840 837 835 833 831 829 827 825 822 820 818 817 815 814 812 811 809 807 806 805 804 802 801 801 802 802 802 802 802 803 803 804 805 806 806 805 803 802 802 801 801 802 803 803 804 806 809 812 814 815 818 819 821 823 824 825 827 828 829 833 835
779 776 776 780 775 780 803 811 808 807 807 815 825 828 825 825 830 831 829 832 834 836 839 841 842 845 845 846 847 847 847 848 847 846 845 843 841 840 837 835 834 832 830 827 824 822 820 818 816 814 813 811 809 808 806 805 803 801 800 800 800 800 801 801 801 801 801 802 803 803 803 803 803 803 802 801 800 800 801 802 803 804 806 809 811 813 816 818 819 821 822 823 824 825 826 829 832
779 779 777 777 770 775 798 815 819 809 806 825 840 836 831 830 832 833 833 835 837 838 840 842 843 845 846 848 849 849 850 850 849 847 846 844 842 840 839 837 836 834 831 829 827 825 822 820 817 815 813 811 809 808 807 805 804 802 801 800 800 800 800 800 799 799 799 799 800 800 800 800 801 802 802 801 799 799 799 800 801 802 804 806 809 811 813 816 818 818 819 820 821 823 824 826 829
771 775 771 773 775 777 784 801 817 812 812 834 842 833 831 831 832 834 835 836 839 839 839 842 844 845 847 849 850 851 851 850 850 848 847 845 843 841 840 838 837 835 833 831 829 827 824 822 820 817 815 812 810 809 808 807 805 803 802 800 800 799 799 798 798 797 797 797 797 796 795 796 796 797 800 801 799 798 798 798 799 801 803 805 807 809 811 814 816 817 817 818 820 822 824 825 827
759 761 761 768 777 781 785 797 807 810 825 841 838 833 830 826 828 832 833 837 839 840 841 843 845 846 848 850 850 851 851 851 850 849 848 846 845 843 841 840 838 836 834 832 830 828 825 823 821 819 817 814 812 810 808 807 806 804 802 800 799 798 797 797 796 796 795 794 794 793 792 793 793 792 795 798 798 797 797 797 799 800 801 803 805 807 809 811 814 814 815 816 818 820 822 823 824
758 758 761 766 772 776 782 791 790 800 828 838 834 838 831 822 827 828 828 836 838 840 845 846 848 849 850 850 851 851 852 853 853 851 850 848 846 845 843 841 839 837 835 833 830 828 826 824 822 820 817 815 812 810 808 807 805 803 801 799 797 796 795 795 794 794 793 791 791 790 790 791 791 790 791 793 795 796 796 797 798 799 800 801 803 805 807 809 811 812 812 813 816 819 820 820 821
761 763 767 771 776 777 780 791 793 798 818 828 831 837 828 822 829 826 827 836 838 841 846 848 851 851 851 852 852 853 855 856 855 853 851 850 848 846 844 842 841 838 836 833 830 829 827 825 823 821 818 816 813 811 809 807 805 803 801 798 796 794 793 793 793 792 790 789 788 787 788 788 789 789 789 789 790 792 795 797 797 798 799 799 801 802 804 805 807 808 809 811 814 817 818 817 818
760 759 763 768 773 774 779 796 804 800 806 814 819 825 826 830 831 827 830 836 838 842 846 849 853 853 853 854 854 856 858 857 857 854 853 852 849 848 846 844 842 840 837 835 832 830 827 825 824 822 821 818 815 813 810 808 806 803 800 798 795 794 792 791 791 790 788 787 786 786 786 786 786 785 785 787 787 788 791 795 796 797 797 797 798 799 800 802 804 805 806 808 810 812 814 814 816